Location: Newark
(42.9858°N, 0.6717°E)
Time: 00:06:46
(UTC+00:00)

Envisat - Pass Details

Date: 27 October 2019
Orbit: 764 x 766 km, 98.1° (Epoch: 12 November)

Event Time Altitude Azimuth Distance (km) Brightness Sun altitude
Rises 18:08:20 0° 171° (S) 3,218 6.2 -13.7°
Reaches altitude 10° 18:10:38 10° 174° (S) 2,296 5.5 -14.1°
Maximum altitude 18:15:41 71° 258° (WSW) 812 3.3 -15.0°
Drops below altitude 10° 18:20:46 10° 343° (NNW) 2,311 5.7 -15.9°
Sets 18:23:06 0° 345° (NNW) 3,242 6.4 -16.3°
